Regional Weather Roundup
Issued by NWS Little Rock, AR

Home | Current Version | Previous Version | Text Only | Print | Product List | Glossary Off
Versions: 1 2 3 4 5 6 7 8 9 10 11 12 13 14 15 16 17 18 19 20 21 22 23 24 25 26 27 28 29 30 31 32 33 34 35 36 37 38 39 40 41 42 43 44 45 46 47 48 49 50

000
ASUS44 KLZK 250705
RWRLZK

WEATHER ROUNDUP FOR ARKANSAS
NATIONAL WEATHER SERVICE LITTLE ROCK AR
200 AM CDT SAT APR 25 2015

NOTE: "FAIR" INDICATES FEW OR NO CLOUDS BELOW 12,000 FEET WITH NO
SIGNIFICANT WEATHER AND/OR OBSTRUCTIONS TO VISIBILITY.

ARZ001-003-010-029-250800-
NORTHWEST ARKANSAS

CITY           SKY/WX    TMP DP  RH WIND       PRES   REMARKS
FAYETTEVILLE   PTCLDY    60  58  92 S13G20    29.61F
FORT SMITH     CLOUDY    60  58  92 E7        29.63F
HARRISON       LGT RAIN  60  58  92 S16G22    29.62F
BENTONVILLE    PTCLDY   N/A N/A N/A S7        29.60S
ROGERS         MOCLDY    60  57  89 S12       29.60F
SILOAM SPGS    CLEAR     61  54  77 S14       29.61S
HIGHFILL       PTCLDY    61  56  83 S13       29.59F
$$

ARZ004-005-016-250800-
NORTH CENTRAL ARKANSAS

CITY           SKY/WX    TMP DP  RH WIND       PRES   REMARKS
BATESVILLE     CLOUDY    59  57  94 CALM      29.66S
FLIPPIN        CLOUDY    59  57  94 SE5       29.63F
MTN HOME       CLOUDY    58  57  97 SE7       29.63F
$$

ARZ040-041-250800-
WEST CENTRAL ARKANSAS

CITY           SKY/WX    TMP DP  RH WIND       PRES   REMARKS
MENA           CLOUDY    64  61  88 SW5       29.70F
MOUNT IDA      FOG       60  60 100 CALM      29.66F VSB 1
$$

ARZ009-017-025-026-028-250800-
NORTHEAST ARKANSAS

CITY           SKY/WX    TMP DP  RH WIND       PRES   REMARKS
CORNING          N/A     57  57 100 SE9       29.68F FOG
JONESBORO      CLOUDY    57  57 100 SE14      29.62F
NEWPORT        CLOUDY    60  60 100 S6        29.65R
WALNUT RIDGE   CLOUDY    57  54  88 SE8       29.67F
BLYTHEVILLE    CLOUDY    58  57  97 S9        29.72F
$$

ARZ022-023-033-042-044-250800-
CENTRAL ARKANSAS

CITY           SKY/WX    TMP DP  RH WIND       PRES   REMARKS
LITTLE ROCK    CLOUDY    62  59  90 S10       29.65R
N LITTLE ROCK    N/A     61  61 100 S8G16     29.65S
JACKSONVILLE   CLOUDY    62  61  99 S3        29.64R
SEARCY         CLOUDY    61  60  97 W3        29.66F
HOT SPRINGS    CLOUDY    62  60  93 CALM      29.69S
RUSSELLVILLE   CLOUDY    61  60  97 CALM      29.67S
CLINTON        CLOUDY    59  59 100 W3        29.68F
$$

ARZ036-250800-
EAST ARKANSAS

CITY           SKY/WX    TMP DP  RH WIND       PRES   REMARKS
WEST MEMPHIS   LGT RAIN  60  60 100 S17       29.73R
$$

ARZ050-053-066-070-073-250800-
SOUTHWEST ARKANSAS

CITY           SKY/WX    TMP DP  RH WIND       PRES   REMARKS
ARKADELPHIA    CLOUDY    62  62 100 S5        29.70S
CAMDEN         CLOUDY    61  59  94 CALM      29.69S
TEXARKANA      CLOUDY    62  61  96 S8        29.70F
EL DORADO      CLOUDY    61  60  97 S7        29.71F
DE QUEEN       CLOUDY    63  61  93 SW3       29.68F
$$

ARZ056-057-069-250800-
SOUTHEAST ARKANSAS

CITY           SKY/WX    TMP DP  RH WIND       PRES   REMARKS
PINE BLUFF     CLOUDY    61  59  93 S6        29.69R
STUTTGART      CLOUDY    61  57  88 SE13      29.64F
MONTICELLO     LGT RAIN  62  62 100 SE9       29.69F FOG

$$




USA.gov is the U.S. government's official web portal to all federal, state and local government web resources and services.